Regional Weather Roundup
Issued by NWS Memphis, TN

Home | Current Version | Previous Version | Text Only | Print | Product List | Glossary On
Versions: 1 2 3 4 5 6 7 8 9 10 11 12 13 14 15 16 17 18 19 20 21 22 23 24 25 26 27 28 29 30 31 32 33 34 35 36 37 38 39 40 41 42 43 44 45 46 47 48 49 50
000
ASUS44 KMEG 291510
RWRMEG
MEMPHIS CWA HOURLY WEATHER ROUNDUP
NATIONAL WEATHER SERVICE MEMPHIS TN
1000 AM CDT TUE JUL 29 2014

...WEST TENNESSEE...

CITY           SKY/WX    TMP DP  RH WIND       PRES   REMARKS
MEMPHIS INTL   MOSUNNY   75  56  51 NE10      30.15R
NWS MEMPHIS      N/A     73 N/A N/A MISG        N/A
JACKSON        SUNNY     72  52  49 NE8       30.14R
LEXINGTON      SUNNY     70  52  52 N7        30.13R
SAVANNAH       SUNNY     72  55  56 NE8       30.14R
DYERSBURG      SUNNY     72  52  49 E3        30.16R
UNION CITY     SUNNY     70  55  60 N5        30.14R
PARIS          SUNNY     68  52  56 N9        30.15R


...EASTERN ARKANSAS...

CITY           SKY/WX    TMP DP  RH WIND       PRES   REMARKS
JONESBORO      SUNNY     73  57  57 E7        30.16R
WEST MEMPHIS   SUNNY     75  60  59 NE8       30.14R
BATESVILLE     SUNNY     73  55  53 CALM      30.17S
NEWPORT        SUNNY     73  58  59 N10       30.18R
WALNUT RIDGE   SUNNY     72  57  60 NE7       30.16S
BLYTHEVILLE    SUNNY     73  57  57 NE5       30.15R
NW BLYTHEVILLE SUNNY     72  55  56 N5        30.15R
SEARCY         SUNNY     75  59  57 VRB7      30.17S
STUTTGART      SUNNY     75  59  57 NE8       30.16S
PINE BLUFF     SUNNY     75  62  64 NE10      30.15S
MONTICELLO     MOSUNNY   78  64  61 NE14      30.13S


...NORTH MISSISSIPPI...

CITY           SKY/WX    TMP DP  RH WIND       PRES   REMARKS
TUPELO         SUNNY     74  59  59 NE10      30.11S
OLIVE BRANCH   MOSUNNY   72  59  64 NE8       30.15R
CLARKSDALE     SUNNY     75  63  64 N10G17    30.14S
CORINTH        SUNNY     72  54  53 NE9       30.13R
GRENADA        PTSUNNY   75  63  64 NE7       30.12S
GREENWOOD      MOSUNNY   77  65  66 NE6       30.11S
COLUMBUS       SUNNY     76  62  62 N7        30.10S
STARKVILLE     PTSUNNY   73  63  68 N5        30.11R
GOLDEN TRIANGL PTSUNNY   75  64  69 NE8       30.11R


...SOUTHEAST MISSOURI...

CITY           SKY/WX    TMP DP  RH WIND       PRES   REMARKS
WEST PLAINS    SUNNY     72  53  51 E5        30.20R
POPLAR BLUFF   SUNNY     72  54  53 NE8       30.15R
CAPE GIRARDEAU SUNNY     73  54  51 N7        30.15R


...NORTHWEST ALABAMA...

CITY           SKY/WX    TMP DP  RH WIND       PRES   REMARKS
MUSCLE SHOALS  MOSUNNY   73  53  49 N9G16     30.12R


...MIDDLE TENNESSEE...

CITY           SKY/WX    TMP DP  RH WIND       PRES   REMARKS
NASHVILLE      SUNNY     70  51  51 N12       30.11S
CLARKSVILLE    SUNNY     72  49  44 NE15      30.12S
DICKSON        SUNNY     66  50  55 N10       30.12R
COLUMBIA       SUNNY     70  52  52 N12       30.11R
LEWISBURG      SUNNY     68  49  50 N10       30.10R


...WESTERN KENTUCKY...

CITY           SKY/WX    TMP DP  RH WIND       PRES   REMARKS
PADUCAH        SUNNY     73  54  51 N6        30.13S
FORT CAMPBELL  SUNNY     72  50  46 N10       30.12S


...CENTRAL ARKANSAS...

CITY           SKY/WX    TMP DP  RH WIND       PRES   REMARKS
LITTLE ROCK    MOSUNNY   76  60  57 NE6       30.16F


SKY/WX REPORTED AS FAIR MEANS FEW OR NO CLOUDS BELOW
12 THOUSAND FEET.



USA.gov is the U.S. government's official web portal to all federal, state and local government web resources and services.